Temp
14 10 9 10 12 14 14 15 15 16 17 17 17 17 18 19 19 20 19 20 21 17 16 15 14 13 13 13 13 13 12 13 13 13 14 15 15 16 15 15 15 15 15 15
12 11 13 14 15 15 15 14 14 16 17 17 16 16 17 18 18 20 20 20 20 15 14 13 13 12 12 11 11 11 11 11 10 11 11 12 13 15 15 15 15 14 15 15
12 14 15 15 15 15 15 14 15 15 15 15 14 14 15 17 19 20 21 21 20 14 13 12 11 11 10 10 9 10 10 10 9 10 11 11 12 13 14 15 15 15 15 15
12 14 15 15 14 15 14 16 16 15 12 11 12 10 13 15 17 18 18 16 14 12 12 11 10 10 9 9 9 9 9 8 8 9 10 9 9 10 12 13 14 15 15 15
12 13 13 14 14 15 14 14 14 14 13 11 12 10 12 15 15 16 13 12 11 11 11 10 9 9 8 8 8 8 8 7 8 8 8 9 10 10 10 11 12 13 14 15
13 14 14 14 15 14 14 13 12 12 11 9 12 11 11 12 15 12 11 11 10 10 9 8 8 8 7 7 7 7 7 6 6 7 7 7 7 8 9 11 11 11 13 14
13 13 14 15 14 13 12 11 8 7 8 10 13 12 13 10 10 11 10 10 10 9 8 7 7 6 5 5 5 5 6 6 6 6 6 6 6 6 7 7 8 10 11 12
11 9 14 12 13 11 11 11 7 8 8 9 11 10 7 7 7 5 9 9 8 8 7 6 6 6 5 4 3 4 4 5 5 4 5 5 5 5 5 5 6 7 8 10
11 11 13 14 14 12 12 10 11 9 8 7 8 9 6 6 6 6 5 5 5 5 5 5 5 4 3 2 2 2 2 2 3 3 4 4 4 4 4 5 5 6 6 8
12 11 11 12 13 13 12 13 9 6 7 8 10 10 8 7 6 6 6 6 6 6 5 4 3 2 1 1 1 1 1 1 1 2 3 3 2 2 3 3 4 3 3 4
11 9 9 10 10 10 11 10 10 9 7 7 7 8 9 7 6 8 8 7 6 4 4 3 1 1 0 -0 -0 -0 0 -0 0 0 1 1 1 2 1 2 2 3 3 4
8 7 6 8 11 11 10 10 10 6 7 7 6 7 9 8 8 9 8 7 4 3 2 1 0 -0 -0 -0 -0 -1 -2 -2 -2 -2 -2 -2 -1 -0 0 1 1 2 4 6
8 5 6 8 9 10 9 10 11 9 8 7 6 7 10 11 10 8 7 4 3 2 0 -1 -2 -2 -2 -2 -2 -3 -3 -4 -4 -4 -4 -3 -2 -1 -1 0 0 2 3 5
9 6 7 8 8 7 8 9 10 8 5 7 8 9 10 8 8 7 5 2 1 -0 -2 -3 -4 -4 -4 -4 -4 -5 -4 -5 -5 -5 -5 -5 -3 -3 -2 -1 1 1 2 3
7 6 8 9 9 10 7 8 9 9 8 7 8 8 8 8 5 5 4 1 -1 -2 -3 -4 -5 -5 -5 -5 -4 -5 -5 -5 -5 -5 -5 -5 -5 -4 -3 -2 -1 -1 0 0
7 5 6 6 8 8 8 9 9 9 9 9 9 8 4 4 3 2 1 -1 -2 -3 -5 -5 -6 -6 -5 -5 -5 -6 -5 -5 -5 -6 -6 -5 -6 -6 -5 -4 -2 -1 -1 -1
6 4 4 4 7 6 5 7 8 9 7 7 1 3 2 -0 -1 -1 -3 -3 -4 -5 -6 -6 -6 -6 -5 -6 -5 -5 -5 -4 -5 -5 -5 -6 -6 -6 -5 -4 -3 -3 -4 -3
4 5 4 4 5 4 5 5 5 6 4 4 4 2 -1 -2 -4 -4 -5 -5 -6 -7 -7 -6 -5 -5 -5 -5 -4 -4 -4 -4 -4 -4 -5 -5 -5 -5 -4 -4 -4 -4 -4 -4
7 4 3 3 3 5 5 2 0 0 1 1 1 0 -2 -3 -4 -5 -5 -6 -7 -6 -7 -7 -6 -5 -5 -5 -5 -4 -4 -5 -4 -4 -5 -5 -4 -4 -4 -4 -4 -4 -4 -3
7 5 2 2 2 -1 2 2 4 2 -1 -0 -0 0 -0 -2 -2 -5 -6 -6 -6 -7 -7 -6 -6 -7 -7 -6 -5 -4 -5 -6 -6 -5 -5 -4 -4 -4 -4 -4 -4 -4 -4 -4
3 2 3 1 1 1 2 1 3 -0 -2 -1 -1 -1 -1 -3 -4 -5 -6 -6 -6 -6 -7 -7 -7 -7 -7 -7 -6 -5 -6 -6 -6 -6 -6 -5 -4 -4 -3 -3 -3 -3 -3 -3
3 3 0 -0 0 2 -1 1 1 -2 -2 -2 -3 -4 -5 -5 -6 -6 -6 -6 -6 -7 -7 -7 -8 -8 -7 -6 -6 -7 -7 -7 -6 -6 -6 -6 -5 -4 -4 -3 -3 -3 -3 -3
2 0 2 -0 -1 -1 -1 -2 -2 -2 -3 -4 -4 -5 -5 -6 -6 -6 -7 -7 -7 -7 -7 -8 -8 -8 -7 -6 -7 -7 -8 -7 -6 -6 -6 -6 -6 -6 -5 -4 -4 -3 -3 -3
2 3 -0 0 -0 -1 -2 -3 -3 -3 -4 -4 -5 -5 -6 -6 -6 -7 -7 -7 -7 -8 -8 -8 -8 -8 -7 -7 -7 -7 -7 -7 -6 -6 -6 -7 -6 -7 -7 -6 -6 -5 -5 -5
1 4 1 -0 -0 -1 -3 -4 -4 -5 -5 -5 -5 -6 -6 -6 -7 -7 -7 -7 -8 -8 -8 -8 -7 -7 -8 -7 -7 -7 -6 -6 -6 -6 -6 -7 -8 -8 -9 -8 -9 -9 -10 -10
-0 -1 1 -1 -1 -1 -3 -4 -5 -5 -6 -6 -6 -6 -6 -6 -7 -7 -7 -8 -8 -8 -8 -8 -7 -7 -8 -7 -7 -7 -7 -6 -7 -7 -8 -9 -9 -10 -10 -10 -11 -11 -10 -10
Height
1483 1489 1491 1489 1485 1479 1478 1478 1473 1463 1460 1465 1461 1453 1449 1445 1445 1441 1442 1443 1444 1448 1450 1451 1453 1454 1452 1454 1457 1460 1460 1460 1462 1465 1464 1463 1462 1463 1464 1464 1465 1465 1466 1464
1487 1476 1479 1478 1476 1474 1473 1473 1470 1462 1457 1459 1455 1452 1446 1441 1439 1439 1437 1438 1439 1444 1446 1446 1452 1454 1455 1455 1456 1459 1461 1462 1460 1460 1462 1461 1459 1458 1457 1458 1457 1457 1458 1459
1479 1472 1473 1473 1472 1472 1467 1467 1465 1462 1455 1453 1454 1454 1446 1440 1434 1430 1427 1427 1431 1439 1439 1445 1451 1454 1456 1457 1458 1458 1459 1461 1460 1457 1457 1456 1455 1454 1451 1450 1449 1450 1451 1452
1466 1469 1470 1470 1467 1469 1468 1459 1455 1456 1466 1474 1461 1468 1455 1442 1436 1430 1429 1430 1432 1441 1446 1446 1453 1454 1456 1458 1459 1456 1458 1460 1458 1456 1453 1451 1448 1447 1447 1446 1444 1444 1445 1444
1452 1462 1466 1466 1462 1462 1461 1459 1460 1458 1459 1466 1458 1474 1448 1439 1438 1433 1435 1443 1445 1438 1451 1449 1453 1455 1457 1458 1455 1455 1458 1458 1456 1453 1450 1447 1444 1442 1439 1438 1437 1437 1436 1436
1456 1455 1458 1453 1452 1454 1455 1458 1461 1460 1460 1473 1451 1467 1446 1441 1435 1441 1441 1451 1445 1446 1449 1453 1455 1455 1455 1456 1455 1456 1457 1455 1453 1449 1446 1443 1440 1437 1434 1432 1428 1427 1427 1427
1454 1449 1447 1449 1450 1450 1457 1466 1480 1483 1475 1464 1448 1451 1439 1441 1441 1443 1437 1443 1449 1450 1450 1455 1455 1456 1455 1454 1455 1457 1455 1451 1447 1443 1441 1437 1434 1430 1427 1424 1422 1419 1417 1415
1459 1466 1445 1447 1445 1453 1457 1461 1483 1475 1474 1467 1455 1453 1460 1461 1447 1451 1453 1450 1449 1451 1454 1457 1456 1452 1455 1457 1457 1455 1451 1447 1443 1439 1435 1431 1427 1422 1419 1416 1413 1410 1407 1406
1453 1452 1443 1444 1444 1449 1454 1462 1457 1468 1470 1474 1462 1453 1462 1455 1454 1457 1452 1464 1463 1458 1452 1447 1454 1460 1460 1458 1455 1450 1446 1442 1438 1433 1428 1424 1420 1415 1411 1408 1404 1399 1397 1394
1441 1451 1448 1447 1446 1446 1450 1452 1466 1479 1477 1467 1453 1445 1454 1459 1461 1460 1463 1461 1457 1454 1458 1462 1464 1463 1459 1455 1452 1447 1442 1438 1434 1430 1425 1419 1413 1408 1404 1400 1395 1390 1386 1383
1435 1447 1456 1452 1452 1453 1453 1455 1458 1462 1472 1475 1470 1456 1447 1453 1458 1457 1460 1458 1457 1457 1461 1464 1465 1463 1459 1454 1448 1443 1439 1434 1430 1425 1420 1414 1409 1404 1399 1393 1386 1381 1377 1374
1444 1451 1462 1456 1447 1445 1449 1449 1454 1472 1467 1466 1467 1462 1448 1450 1454 1452 1452 1452 1456 1459 1463 1465 1463 1459 1453 1449 1444 1440 1437 1433 1429 1423 1417 1411 1406 1400 1394 1387 1381 1375 1369 1366
1442 1461 1462 1454 1452 1448 1451 1447 1447 1449 1454 1461 1469 1464 1448 1448 1451 1454 1455 1458 1459 1461 1462 1462 1459 1456 1451 1447 1444 1442 1438 1434 1429 1423 1416 1410 1402 1396 1389 1382 1377 1370 1362 1357
1440 1453 1453 1450 1453 1453 1453 1448 1446 1450 1468 1456 1454 1450 1446 1449 1450 1457 1460 1462 1463 1464 1464 1463 1460 1457 1453 1450 1448 1445 1440 1436 1430 1423 1416 1409 1400 1393 1387 1380 1372 1365 1359 1352
1443 1450 1447 1446 1444 1446 1454 1448 1443 1443 1447 1454 1450 1450 1445 1447 1454 1459 1461 1464 1465 1466 1467 1466 1462 1458 1456 1454 1451 1447 1443 1438 1430 1424 1416 1408 1401 1395 1386 1380 1372 1366 1357 1348
1442 1451 1451 1452 1447 1445 1445 1441 1439 1439 1440 1440 1441 1446 1455 1456 1457 1460 1463 1465 1467 1468 1468 1465 1463 1462 1459 1457 1455 1452 1445 1438 1431 1425 1417 1410 1405 1399 1390 1379 1370 1365 1358 1350
1443 1450 1456 1459 1447 1449 1453 1443 1439 1438 1443 1445 1464 1460 1460 1464 1465 1467 1467 1467 1466 1467 1468 1469 1467 1465 1463 1461 1457 1451 1446 1440 1435 1428 1422 1415 1409 1401 1391 1383 1376 1368 1362 1356
1443 1447 1453 1455 1452 1461 1449 1446 1445 1446 1452 1452 1455 1459 1461 1465 1468 1469 1469 1467 1469 1470 1470 1470 1467 1467 1466 1463 1459 1454 1449 1445 1440 1433 1427 1420 1412 1404 1395 1388 1381 1375 1368 1359
1435 1444 1454 1460 1459 1448 1446 1453 1457 1458 1461 1460 1459 1461 1462 1465 1467 1471 1471 1470 1470 1470 1471 1471 1470 1469 1468 1465 1461 1457 1453 1449 1444 1438 1433 1426 1419 1410 1403 1395 1389 1383 1375 1368
1435 1439 1456 1457 1461 1478 1457 1456 1454 1457 1468 1461 1461 1460 1461 1462 1465 1473 1472 1473 1473 1474 1474 1473 1471 1470 1469 1468 1465 1460 1457 1453 1448 1444 1439 1433 1425 1418 1410 1404 1399 1393 1386 1380
1443 1448 1452 1459 1465 1456 1455 1457 1456 1466 1470 1461 1461 1459 1460 1462 1464 1468 1472 1474 1476 1476 1475 1474 1474 1473 1472 1470 1467 1464 1461 1458 1454 1451 1448 1440 1432 1425 1420 1414 1407 1403 1396 1391
1439 1447 1457 1459 1461 1455 1458 1456 1457 1462 1461 1461 1460 1458 1458 1461 1466 1470 1473 1475 1476 1476 1476 1477 1476 1475 1474 1471 1468 1467 1465 1463 1459 1455 1451 1445 1439 1433 1427 1422 1417 1412 1406 1401
1443 1445 1444 1455 1459 1458 1459 1459 1460 1460 1460 1462 1461 1462 1462 1463 1468 1472 1474 1475 1477 1477 1478 1478 1477 1475 1474 1473 1473 1470 1468 1466 1462 1457 1453 1448 1444 1440 1434 1428 1423 1418 1414 1410
1437 1438 1447 1451 1456 1457 1459 1461 1461 1460 1461 1462 1463 1464 1466 1467 1470 1473 1475 1477 1478 1478 1479 1479 1478 1477 1477 1476 1474 1471 1470 1468 1464 1460 1456 1452 1449 1446 1441 1436 1431 1427 1423 1420
1438 1436 1443 1452 1455 1458 1460 1461 1461 1461 1462 1463 1465 1466 1468 1470 1472 1474 1476 1478 1479 1480 1480 1480 1480 1480 1479 1478 1475 1473 1471 1469 1466 1463 1461 1458 1455 1451 1447 1443 1439 1436 1434 1432
1440 1444 1443 1447 1447 1451 1457 1460 1461 1461 1463 1465 1466 1469 1471 1472 1474 1476 1478 1479 1481 1482 1483 1482 1482 1482 1481 1479 1476 1474 1474 1472 1469 1467 1464 1462 1459 1457 1454 1451 1448 1446 1444 1441
Wind_Speed
17 6 7 13 14 15 13 16 18 17 14 11 14 21 14 19 18 17 15 21 21 13 27 20 16 14 10 6 2 5 8 10 13 13 14 17 19 25 28 22 26 29 31 35
8 17 12 14 14 16 16 18 19 19 18 15 18 19 14 14 12 19 19 18 26 29 30 24 16 10 7 4 3 4 5 10 12 13 14 16 21 23 24 29 26 23 33 29
18 9 12 17 19 18 19 18 17 20 10 10 12 12 12 13 25 29 27 32 17 35 35 28 22 17 9 8 6 7 10 12 14 16 18 18 18 21 25 28 33 29 29 28
17 16 17 19 19 14 20 12 17 16 10 6 4 9 15 19 19 22 27 15 32 33 31 28 22 17 11 7 7 11 12 15 16 18 20 21 22 24 24 26 29 33 35 34
26 20 18 21 22 17 20 10 13 12 11 9 21 1 10 11 16 12 19 27 28 34 27 26 22 16 11 8 11 14 16 18 20 21 21 23 25 26 29 31 31 32 34 40
21 26 15 18 20 7 9 5 5 5 1 5 17 3 18 9 8 13 21 19 26 30 29 24 19 12 11 11 13 15 18 22 23 24 25 25 26 27 29 31 34 35 35 39
14 18 20 20 15 3 3 3 4 4 1 10 4 9 9 6 15 8 19 25 27 28 27 22 19 16 14 16 18 21 24 27 30 29 28 28 28 29 31 32 33 35 39 41
7 8 2 6 5 7 6 5 5 4 2 5 6 5 2 14 24 29 21 24 26 28 24 21 19 18 18 18 21 24 26 28 29 29 30 30 30 30 31 33 35 38 40 42
2 4 4 4 2 1 1 5 7 2 5 6 5 2 5 11 11 19 18 18 16 18 20 22 17 14 15 18 23 26 28 28 29 31 32 32 30 30 32 34 36 39 40 41
7 7 3 3 4 3 4 0 3 2 3 4 4 5 2 4 8 11 11 11 16 21 20 16 12 12 16 21 24 26 27 28 29 29 29 30 31 31 32 34 35 36 39 39
4 4 0 3 3 4 2 2 2 4 4 3 3 3 2 12 11 7 10 15 21 22 18 15 13 13 17 22 26 27 28 29 29 29 28 27 27 29 31 31 31 32 35 35
1 4 3 7 4 4 4 6 9 5 5 3 2 5 4 7 5 11 14 21 23 18 15 12 14 18 22 24 28 29 29 28 28 27 26 25 24 25 26 26 25 23 27 32
5 1 1 4 3 2 4 4 5 2 4 3 2 3 3 5 5 19 16 22 21 15 15 16 19 21 23 26 27 27 27 26 26 26 24 23 21 21 22 21 21 21 20 22
6 3 5 6 1 1 3 7 8 4 3 4 9 10 6 2 9 11 17 23 18 16 16 16 19 21 23 24 25 25 25 24 24 24 24 24 22 20 19 17 17 16 16 16
4 3 3 6 9 8 8 15 8 7 7 6 10 7 8 6 12 14 19 18 16 15 15 14 18 21 22 23 24 23 22 22 23 24 26 26 26 24 19 18 16 15 15 17
2 1 3 2 7 10 11 10 11 7 5 7 8 2 13 18 22 20 17 15 14 12 13 15 16 17 20 22 21 21 23 24 24 25 27 28 29 30 29 28 26 22 23 28
4 3 3 3 2 5 4 4 3 6 6 3 4 3 10 12 16 13 14 12 14 12 12 11 13 15 16 18 20 24 26 26 26 27 27 28 30 32 36 36 36 37 38 38
7 5 3 2 2 3 2 9 8 4 10 7 8 10 13 15 14 13 12 12 12 10 10 11 12 13 14 16 19 21 24 26 27 28 29 29 32 35 38 40 41 42 44 46
5 4 2 3 3 4 2 5 4 3 2 8 4 10 17 21 19 13 10 10 11 12 11 12 13 13 14 17 19 21 24 27 28 29 28 30 32 37 39 42 44 45 47 49
5 5 4 1 3 4 2 4 8 6 3 6 8 5 12 15 2 2 7 10 12 13 13 15 16 19 22 22 20 22 26 30 34 32 28 26 29 32 36 38 41 44 46 49
3 2 5 2 3 1 3 4 1 2 3 4 8 9 6 3 4 17 13 14 13 12 12 15 15 16 18 20 21 20 22 25 26 29 32 31 31 33 34 34 36 37 40 42
5 4 3 2 2 6 7 3 3 2 5 3 7 10 22 24 22 19 17 15 15 14 14 14 13 12 12 15 18 21 21 18 18 21 26 32 34 35 34 35 36 38 40 41
1 4 3 2 2 6 6 6 4 3 7 6 11 14 22 25 22 19 18 17 16 16 14 9 9 10 11 10 12 16 17 15 17 21 24 26 30 34 35 36 37 38 38 40
2 4 4 4 4 7 8 5 6 6 9 10 13 17 19 23 21 20 18 17 17 15 12 7 8 10 12 12 12 13 14 16 19 22 25 27 28 30 33 35 37 37 38 38
1 3 6 4 7 9 9 7 8 10 12 13 13 16 19 20 20 19 18 17 16 13 9 8 9 12 15 16 19 18 17 18 21 21 23 25 27 29 30 33 36 37 36 33
4 1 1 1 15 8 13 11 10 13 14 15 18 18 17 17 19 18 18 18 16 12 8 9 10 10 12 15 18 19 18 18 20 23 23 24 25 26 27 28 28 29 31 29
Wind_Direction
212 199 200 218 228 233 255 265 273 286 298 290 285 297 291 293 267 250 254 211 216 151 143 130 127 132 136 136 218 297 301 288 288 287 279 264 256 250 241 244 244 244 251 253
266 241 217 239 251 261 270 276 280 285 289 286 287 285 290 296 277 253 261 253 227 143 132 126 116 115 82 54 20 333 310 307 303 295 281 276 274 262 256 242 248 249 241 256
241 252 234 244 254 255 256 257 266 268 295 325 335 308 304 298 284 282 261 261 257 136 123 112 105 97 86 61 21 352 331 317 307 302 300 292 280 273 273 261 251 249 246 251
247 259 262 274 276 288 287 295 301 314 353 304 53 293 297 280 285 292 295 125 114 107 105 102 94 86 76 52 345 344 329 316 309 307 307 308 306 299 288 280 272 261 253 252
260 262 262 268 265 272 280 343 337 317 284 291 272 20 270 289 295 338 88 87 84 95 90 90 88 73 52 7 352 338 319 314 312 312 309 304 300 297 296 293 284 273 264 256
258 262 257 257 256 263 305 300 283 294 209 268 270 204 274 261 278 102 93 76 87 88 89 81 80 72 40 4 353 338 327 325 323 318 312 305 300 295 291 288 288 286 275 262
261 259 254 252 255 12 316 348 343 322 161 253 339 255 266 59 43 106 117 103 86 80 73 66 61 48 27 4 346 332 329 328 326 323 316 310 304 300 297 295 289 285 281 275
266 300 288 4 224 172 217 177 156 255 279 305 320 271 30 18 66 59 26 67 79 73 68 59 47 24 3 346 335 333 333 332 328 324 318 313 307 304 300 298 295 288 284 277
203 262 38 10 171 203 343 234 178 214 300 283 231 112 121 74 60 85 53 40 46 69 55 40 24 357 344 339 337 339 340 338 333 328 321 314 309 307 304 300 297 292 287 280
215 255 58 318 26 324 172 158 86 73 242 254 277 268 140 131 105 117 143 124 88 78 72 61 39 12 352 346 342 343 342 339 334 327 321 317 314 310 307 303 301 297 291 283
87 113 329 93 200 194 251 231 236 155 157 226 319 301 345 146 173 156 152 117 89 77 68 55 33 3 347 345 348 350 345 341 338 333 327 321 316 312 309 306 306 299 293 285
343 125 193 229 260 11 321 225 226 197 238 218 190 284 129 130 192 176 118 101 87 75 62 31 7 348 348 352 353 353 348 345 344 341 336 331 324 321 316 310 306 303 299 284
171 79 201 336 255 282 244 238 251 177 145 183 258 243 124 158 156 46 76 78 74 57 31 11 1 359 360 1 358 355 352 352 352 352 351 345 336 331 329 323 318 316 315 305
107 158 183 232 138 34 310 247 255 225 170 218 233 267 253 167 116 120 102 88 76 54 36 22 10 7 7 7 4 2 359 1 4 9 9 8 2 354 347 344 340 335 332 326
123 160 215 282 274 260 250 275 257 244 227 214 253 238 252 99 101 99 93 88 71 50 36 26 19 15 14 14 12 11 12 12 18 22 25 26 24 21 18 20 23 25 29 26
165 151 75 285 294 286 283 279 284 278 259 280 280 291 76 78 84 74 80 79 70 55 39 29 27 23 24 23 22 23 24 25 29 33 36 38 38 38 41 44 43 44 48 51
142 127 126 252 357 1 304 242 279 264 50 20 69 38 97 77 72 72 80 76 65 58 47 36 38 37 35 33 32 33 33 32 35 39 42 46 46 49 50 52 54 56 55 60
152 163 152 214 70 233 98 53 56 61 54 43 92 99 99 98 86 68 68 74 78 75 62 52 51 46 42 42 43 43 43 40 40 42 44 47 53 54 58 58 57 57 58 60
146 138 163 164 201 276 3 10 44 90 60 24 42 124 127 124 99 74 73 82 83 78 76 70 66 62 57 52 48 49 47 44 41 38 41 46 51 58 58 59 61 62 62 63
142 124 122 11 180 233 167 3 36 66 281 17 6 10 164 166 105 134 113 106 96 86 86 83 77 69 61 55 55 55 54 51 49 43 39 44 48 52 59 60 60 61 61 63
107 97 184 186 228 201 57 348 29 101 230 345 318 286 256 117 118 148 135 116 113 100 85 76 72 73 66 59 54 53 53 51 50 47 48 49 55 57 57 58 60 59 61 61
159 172 185 167 190 249 2 294 204 70 96 55 69 125 119 125 127 129 128 124 119 107 89 76 64 67 70 69 64 50 44 46 50 52 50 49 52 56 58 59 59 61 60 61
96 158 120 112 176 101 53 88 70 108 120 115 122 128 131 131 132 135 128 118 111 102 90 88 84 70 73 76 72 70 49 46 54 56 53 51 46 47 52 56 57 57 56 55
123 172 105 146 143 132 126 113 117 119 120 126 135 141 142 135 137 130 123 119 109 98 96 93 86 78 74 70 74 73 64 60 59 58 54 49 48 45 45 49 49 50 50 51
244 140 119 82 123 120 126 138 139 126 126 127 136 143 141 138 134 131 125 117 103 98 95 94 92 83 78 73 69 66 66 62 59 57 57 54 50 46 43 42 43 42 45 45
24 73 163 156 157 97 143 153 149 133 133 135 135 135 142 143 139 137 128 116 110 110 108 94 88 89 85 81 79 70 56 56 58 56 53 52 51 50 49 46 45 39 38 41